sat.trackr.live / text

‹ back to catalog

GLOBALSTAR M076

NORAD 37190 · 2010-054C

PAYLOAD ACTIVE UNKNOWN

§ Identity

Operator
Country
GLOB
Launch date
2010-10-19
Launch site
TYMSC
Launch vehicle
Mass (kg)
RCS (m²)
4.58

Purposes: comms

External: N2YO · Heavens-Above · Gunter

§ Orbital elements

Epoch: 2026-09-09T04:38:42.139392Z

Period
114.08 min
Inclination
52.0018°
Eccentricity
0.0000139
Mean motion
12.62263463 rev/d
Perigee alt
1,413.5 km
Apogee alt
1,413.7 km
Semi-major
7,791.8 km
B*
-1.5589e-5
RAAN
212.4065°
Arg perigee
91.6008°
Mean anomaly
284.1285°
Rev number
73,348

§ Raw data

GLOBALSTAR M0761 37190U 10054C   26252.19354328 -.00000107  00000+0 -15589-4 0  99932 37190  52.0018 212.4065 0000139  91.6008 284.1285 12.62263463733485

JSON: /api/v1/satellites/37190 · /tle

For live sub-satellite position, see the globe view (requires WebGL).

§ Visibility from observer

Set your observer location to see the next 7 days of passes ≥ 10°. The values pass through the URL so the page stays shareable.

No JS? Fill the form by hand. The geolocation button needs JavaScript.